Tracking 29892 objects as of 21-Nov-2024
HD Live streaming from Space Station
objects crossing your sky now

STARLINK-3714

Track STARLINK-3714 now!
10-day predictions
STARLINK-3714 is classified as:


NORAD ID: 52094
Int'l Code: 2022-029G
Perigee: 546.0 km
Apogee: 547.7 km
Inclination: 53.2 °
Period: 95.4 minutes
Semi major axis: 6917 km
RCS: Unknown
Launch date: March 19, 2022
Source: United States (US)
Launch site: AIR FORCE EASTERN TEST RANGE (AFETR)
Your satellite tracking list
Your tracking list is empty




NASA's NSSDC Master Catalog

Two Line Element Set (TLE):
1 52094U 22029G   24325.26557252  .00000329  00000-0  38776-4 0  9994
2 52094  53.2171  58.8902 0001204  91.5724 268.5406 15.08841700149030
Source of the keplerian elements: AFSPC